1491764400.82,53229,14.56,74184.0,-3.37,-28.85,-29.51,0,*50
1491764402.07,53230,14.5,74184.5,-3.35,-28.75,-29.29,0,*5A
1491764403.32,53231,14.56,74184.8,-3.37,-28.85,-29.45,0,*5C
1491764404.57,53232,14.56,74186.5,-3.37,-29.13,-29.61,0,*57
1491764405.84,53233,14.56,74186.5,-3.37,-29.01,-29.67,0,*53
1491764407.13,53234,14.56,74186.3,-3.37,-28.79,-29.35,0,*5D
1491764408.39,53235,14.5,74182.0,-3.37,-29.01,-29.61,0,*53
1491764409.68,53236,14.5,74184.3,-3.37,-28.79,-29.35,0,*5F
1491764410.95,53237,14.5,74184.0,-3.37,-28.85,-29.35,0,*5D
1491764412.18,53238,14.5,74184.3,-3.37,-28.97,-29.45,0,*56
1491764413.46,53239,14.5,74186.0,-3.37,-28.79,-29.29,0,*5D
1491764414.69,53240,14.5,74184.0,-3.39,-28.79,-29.45,0,*57
1491764415.96,53241,14.56,74186.8,-3.37,-28.97,-29.51,0,*5D
1491764417.22,53242,14.56,74188.0,-3.35,-28.91,-29.39,0,*54
1491764418.48,53243,14.56,74186.0,-3.35,-28.91,-29.29,0,*54
1491764419.76,53244,14.5,74184.5,-3.37,-28.75,-29.17,0,*56
1491764421.04,53245,14.5,74184.5,-3.37,-28.75,-29.17,0,*57
1491764422.3,53246,14.5,74186.3,-3.37,-28.79,-29.45,0,*5F
1491764423.54,53247,14.5,74182.5,-3.35,-28.91,-29.61,0,*5C
1491764424.82,53248,14.5,74184.3,-3.37,-28.75,-29.17,0,*5A
1491764426.07,53249,14.5,74186.5,-3.39,-28.75,-29.29,0,*58
1491764427.36,53250,14.56,74190.0,-3.37,-28.75,-29.35,0,*53
1491764428.64,53251,14.56,74190.0,-3.37,-28.75,-29.29,0,*5F
1491764429.92,53252,14.5,74186.5,-3.37,-28.75,-29.35,0,*51
1491764431.21,53253,14.5,74186.8,-3.37,-28.79,-29.35,0,*5C
1491764432.47,53254,14.5,74182.5,-3.35,-28.79,-29.39,0,*55
1491764433.73,53255,14.56,74188.5,-3.35,-28.79,-29.29,0,*55
1491764434.93,53256,14.5,74186.3,-3.35,-28.69,-29.23,0,*5D
1491764436.16,53257,14.5,74184.0,-3.35,-28.69,-29.29,0,*56
1491764437.37,53258,14.5,74184.0,-3.35,-28.97,-29.61,0,*54
1491764438.63,53259,14.56,74186.3,-3.35,-28.79,-29.39,0,*58
1491764439.85,53260,14.56,74186.8,-3.35,-28.97,-29.57,0,*5A
1491764441.09,53261,14.56,74184.0,-3.35,-28.79,-29.57,0,*5B
1491764442.3,53262,14.56,74188.0,-3.35,-28.97,-29.57,0,*58
1491764443.53,53263,14.56,74184.3,-3.35,-28.75,-29.23,0,*56
1491764444.79,53264,14.5,74184.0,-3.35,-28.79,-29.29,0,*57
1491764446.05,53265,14.5,74184.5,-3.37,-28.85,-29.35,0,*5A
1491764447.31,53266,14.56,74186.8,-3.37,-29.01,-29.61,0,*55
1491764448.6,53267,14.56,74184.8,-3.37,-28.79,-29.17,0,*5B
1491764449.85,53268,14.56,74186.8,-3.35,-28.75,-29.39,0,*56
1491764451.12,53269,14.5,74184.5,-3.37,-28.97,-29.51,0,*57
1491764452.38,53270,14.56,74186.0,-3.37,-28.97,-29.51,0,*5F
1491764453.59,53271,14.56,74186.3,-3.35,-28.69,-29.23,0,*58
1491764454.82,53272,14.56,74186.8,-3.35,-28.69,-29.29,0,*51
1491764456.03,53273,14.5,74184.3,-3.35,-28.97,-29.57,0,*58
1491764457.29,53274,14.56,74184.3,-3.35,-28.91,-29.39,0,*51
1491764458.51,53275,14.56,74184.3,-3.35,-28.97,-29.57,0,*5E
1491764459.8,53276,14.5,74184.5,-3.37,-29.01,-29.51,0,*57
1491764461.04,53277,14.5,74182.3,-3.33,-29.07,-29.57,0,*52
1491764462.25,53278,14.56,74184.8,-3.35,-29.07,-29.61,0,*5E
1491764463.46,53279,14.56,74186.5,-3.35,-28.97,-29.57,0,*52
1491764464.72,53280,14.56,74186.5,-3.37,-29.01,-29.61,0,*5D
1491764465.97,53281,14.5,74184.0,-3.35,-28.91,-29.45,0,*50
1491764467.19,53282,14.56,74188.0,-3.39,-29.13,-29.79,0,*5B
1491764468.45,53283,14.5,74184.0,-3.37,-29.13,-29.61,0,*5D
1491764469.66,53284,14.5,74184.5,-3.35,-29.07,-29.57,0,*58
1491764470.93,53285,14.56,74188.3,-3.37,-29.13,-29.67,0,*5D
1491764472.15,53286,14.5,74186.8,-3.39,-29.13,-29.79,0,*5F
1491764473.36,53287,14.56,74186.5,-3.35,-28.97,-29.45,0,*50
1491764474.62,53288,14.5,74186.3,-3.37,-29.13,-29.61,0,*56
1491764475.89,53289,14.5,74184.0,-3.37,-28.85,-29.35,0,*58
1491764477.17,53290,14.5,74184.5,-3.37,-28.75,-29.17,0,*5F
1491764478.38,53291,14.5,74184.5,-3.35,-28.97,-29.57,0,*54
1491764479.65,53292,14.5,74186.3,-3.37,-28.85,-29.51,0,*50
1491764480.91,53293,14.56,74186.0,-3.39,-28.75,-29.35,0,*52
1491764482.17,53294,14.5,74184.0,-3.37,-29.01,-29.67,0,*5E
1491764483.41,53295,14.5,74182.8,-3.39,-28.97,-29.51,0,*5A
1491764484.67,53296,14.5,74186.5,-3.37,-28.85,-29.51,0,*54
1491764485.91,53297,14.56,74184.0,-3.37,-28.97,-29.45,0,*53
1491764487.16,53298,14.5,74186.0,-3.37,-29.13,-29.79,0,*5E
1491764488.4,53299,14.5,74184.5,-3.39,-29.13,-29.83,0,*54
1491764489.66,53300,14.5,74184.0,-3.39,-29.01,-29.51,0,*59
1491764490.89,53301,14.56,74186.8,-3.39,-28.97,-29.51,0,*56
1491764492.18,53302,14.5,74184.0,-3.37,-29.01,-29.51,0,*55
1491764493.45,53303,14.5,74184.0,-3.37,-29.01,-29.61,0,*57
1491764494.67,53304,14.5,74184.5,-3.39,-29.13,-29.79,0,*54
1491764495.96,53305,14.5,74184.8,-3.37,-28.75,-29.35,0,*52
1491764497.17,53306,14.5,74184.0,-3.39,-28.85,-29.45,0,*57
1491764498.46,53307,14.56,74184.5,-3.37,-29.01,-29.51,0,*50
1491764499.69,53308,14.5,74184.0,-3.39,-29.01,-29.79,0,*5B
1491764500.92,53309,14.5,74180.5,-3.39,-29.17,-29.83,0,*58
1491764502.15,53310,14.5,74186.0,-3.39,-29.29,-29.79,0,*58
1491764503.38,53311,14.5,74184.0,-3.39,-28.97,-29.51,0,*57
1491764504.62,53312,14.5,74186.3,-3.43,-29.07,-29.67,0,*54
1491764505.88,53313,14.5,74182.8,-3.43,-29.01,-29.57,0,*50
1491764507.11,53314,14.5,74184.8,-3.43,-29.07,-29.57,0,*51
1491764508.37,53315,14.5,74184.8,-3.45,-28.91,-29.39,0,*50
1491764509.6,53316,14.5,74188.0,-3.43,-29.07,-29.67,0,*50
1491764510.83,53317,14.5,74184.8,-3.45,-29.23,-29.73,0,*54
1491764512.08,53318,14.5,74184.5,-3.43,-29.07,-29.73,0,*5B
1491764513.36,53319,14.5,74186.3,-3.43,-28.79,-29.39,0,*5C
1491764514.65,53320,14.5,74186.3,-3.43,-28.91,-29.35,0,*5C
1491764515.93,53321,14.5,74186.0,-3.43,-29.01,-29.39,0,*59
1491764517.18,53322,14.5,74184.0,-3.43,-28.79,-29.23,0,*5F
1491764518.47,53323,14.5,74184.5,-3.43,-29.01,-29.51,0,*55
1491764519.7,53324,14.5,74186.0,-3.39,-28.97,-29.51,0,*51
1491764520.94,53325,14.5,74186.5,-3.39,-28.79,-29.45,0,*55
1491764522.2,53326,14.5,74186.5,-3.43,-28.91,-29.57,0,*5E
1491764523.4,53327,14.5,74184.8,-3.45,-29.07,-29.61,0,*52
1491764524.63,53328,14.5,74186.5,-3.43,-29.07,-29.67,0,*5D
1491764525.91,53329,14.5,74186.0,-3.43,-29.17,-29.73,0,*58
1491764527.15,53330,14.5,74188.3,-3.43,-29.07,-29.67,0,*54
1491764528.35,53331,14.5,74186.3,-3.45,-29.23,-29.79,0,*5A
1491764529.57,53332,14.5,74184.3,-3.45,-29.13,-29.79,0,*5A
1491764530.83,53333,14.56,74188.0,-3.43,-29.17,-29.83,0,*5C
1491764532.07,53334,14.5,74186.3,-3.43,-29.23,-29.83,0,*5C
1491764533.29,53335,14.5,74188.0,-3.45,-29.13,-29.61,0,*54
1491764534.52,53336,14.5,74184.0,-3.45,-29.13,-29.79,0,*5E
1491764535.72,53337,14.5,74184.0,-3.45,-28.97,-29.45,0,*5D
1491764536.96,53338,14.5,74190.0,-3.45,-28.91,-29.45,0,*54
1491764538.21,53339,14.5,74186.0,-3.43,-28.79,-29.23,0,*55
1491764539.44,53340,14.56,74190.5,-3.45,-29.23,-29.89,0,*53
1491764540.69,53341,14.5,74186.5,-3.45,-29.13,-29.73,0,*54
1491764541.9,53342,14.5,74188.3,-3.45,-29.07,-29.61,0,*51
1491764543.13,53343,14.5,74184.3,-3.45,-29.23,-29.89,0,*50
1491764544.38,53344,14.5,74186.8,-3.45,-29.13,-29.73,0,*51
1491764545.59,53345,14.5,74184.3,-3.45,-29.07,-29.57,0,*53
1491764546.82,53346,14.5,74190.0,-3.45,-28.85,-29.39,0,*53
1491764548.02,53347,14.5,74188.5,-3.45,-29.07,-29.79,0,*5D
1491764549.25,53348,14.5,74186.5,-3.45,-28.91,-29.57,0,*50
1491764550.46,53349,14.56,74190.5,-3.45,-28.97,-29.57,0,*57
1491764551.67,53350,14.5,74186.3,-3.45,-29.07,-29.57,0,*57
1491764552.92,53351,14.5,74188.8,-3.43,-28.85,-29.39,0,*53
1491764554.17,53352,14.5,74188.3,-3.45,-29.13,-29.73,0,*56
1491764555.4,53353,14.5,74188.0,-3.45,-29.13,-29.61,0,*54
1491764556.64,53354,14.5,74190.0,-3.45,-28.91,-29.57,0,*5D
1491764557.86,53355,14.5,74188.3,-3.45,-29.13,-29.79,0,*5B
1491764559.11,53356,14.5,74186.8,-3.47,-29.29,-29.79,0,*53
1491764560.33,53357,14.5,74186.5,-3.45,-28.97,-29.73,0,*5E
1491764561.54,53358,14.5,74186.3,-3.45,-29.07,-29.45,0,*5C
1491764562.77,53359,14.5,74188.5,-3.45,-28.91,-29.45,0,*53
1491764563.98,53360,14.5,74186.3,-3.45,-29.07,-29.79,0,*58
1491764565.2,53361,14.5,74188.3,-3.47,-28.97,-29.61,0,*5A
1491764566.46,53362,14.5,74190.0,-3.47,-28.91,-29.45,0,*59
1491764567.69,53363,14.5,74186.3,-3.45,-28.91,-29.57,0,*59
1491764568.9,53364,14.5,74186.5,-3.45,-28.85,-29.45,0,*58
1491764570.11,53365,14.5,74184.0,-3.45,-28.85,-29.45,0,*59
1491764571.34,53366,14.56,74188.8,-3.45,-28.85,-29.29,0,*50
1491764572.57,53367,14.5,74188.0,-3.45,-28.91,-29.45,0,*5E
1491764573.78,53368,14.5,74188.8,-3.45,-28.85,-29.45,0,*54
1491764574.99,53369,14.5,74184.8,-3.45,-28.85,-29.45,0,*55
1491764576.19,53370,14.56,74188.8,-3.45,-29.07,-29.61,0,*50
1491764577.4,53371,14.5,74182.8,-3.45,-28.97,-29.45,0,*5F
1491764578.68,53372,14.5,74190.3,-3.47,-28.91,-29.39,0,*53
1491764579.92,53373,14.5,74186.8,-3.45,-28.75,-29.29,0,*5B
1491764581.17,53374,14.56,74188.8,-3.45,-28.75,-29.39,0,*5D
1491764582.37,53375,14.5,74186.8,-3.45,-28.69,-29.23,0,*5A
1491764583.57,53376,14.5,74186.5,-3.45,-28.69,-29.23,0,*59
1491764584.85,53377,14.5,74188.5,-3.43,-29.01,-29.39,0,*5A
1491764586.1,53378,14.5,74186.8,-3.45,-29.13,-29.73,0,*5E
1491764587.35,53379,14.5,74186.0,-3.45,-29.13,-29.73,0,*5F
1491764588.55,53380,14.5,74184.8,-3.45,-28.97,-29.45,0,*51
1491764589.81,53381,14.5,74190.0,-3.43,-28.79,-29.23,0,*56
1491764591.04,53382,14.5,74188.0,-3.45,-28.91,-29.57,0,*56
1491764592.24,53383,14.5,74188.5,-3.45,-28.97,-29.61,0,*54
1491764593.47,53384,14.5,74190.3,-3.45,-29.23,-29.73,0,*5E
1491764594.68,53385,14.5,74190.5,-3.45,-29.07,-29.61,0,*5A
1491764595.88,53386,14.5,74190.3,-3.45,-28.97,-29.57,0,*54
1491764597.08,53387,14.5,74186.0,-3.45,-28.97,-29.61,0,*50
1491764598.34,53388,14.56,74190.8,-3.45,-28.91,-29.39,0,*54
1491764599.57,53389,14.5,74188.8,-3.45,-28.91,-29.57,0,*5D
1491764600.78,53390,14.5,74188.5,-3.45,-29.07,-29.61,0,*5E
1491764602.0,53391,14.5,74188.5,-3.47,-29.23,-29.79,0,*52
1491764603.28,53392,14.5,74190.8,-3.47,-29.13,-29.73,0,*58
1491764604.5,53393,14.5,74188.5,-3.45,-29.07,-29.73,0,*5E
1491764605.73,53394,14.5,74190.3,-3.45,-28.85,-29.29,0,*5D
1491764606.93,53395,14.5,74184.8,-3.45,-28.69,-29.23,0,*54
1491764608.18,53396,14.5,74190.3,-3.45,-28.91,-29.39,0,*5B
1491764609.39,53397,14.5,74188.5,-3.45,-29.07,-29.57,0,*5C
1491764610.65,53398,14.5,74190.8,-3.45,-28.91,-29.39,0,*55
1491764611.87,53399,14.5,74190.8,-3.45,-28.69,-29.13,0,*5B
1491764613.12,53400,14.5,74186.8,-3.45,-28.91,-29.39,0,*53
1491764614.33,53401,14.5,74188.0,-3.45,-29.07,-29.61,0,*51
1491764615.53,53402,14.5,74190.8,-3.45,-28.97,-29.45,0,*5C
1491764616.79,53403,14.5,74186.0,-3.45,-28.91,-29.39,0,*50
1491764618.02,53404,14.5,74188.3,-3.45,-28.91,-29.57,0,*5F
1491764619.23,53405,14.5,74188.3,-3.45,-28.97,-29.57,0,*58
1491764620.49,53406,14.5,74186.8,-3.47,-28.91,-29.45,0,*5C
1491764621.73,53407,14.5,74188.5,-3.45,-28.75,-29.29,0,*5F
1491764622.99,53408,14.5,74188.0,-3.47,-28.91,-29.45,0,*52
1491764624.2,53409,14.5,74188.5,-3.39,-28.85,-29.45,0,*5F
1491764625.41,53410,14.56,74190.8,-3.45,-28.85,-29.45,0,*5C
1491764626.61,53411,14.5,74190.3,-3.45,-28.97,-29.61,0,*58
1491764627.82,53412,14.5,74188.8,-3.45,-29.07,-29.61,0,*53
1491764629.04,53413,14.56,74192.3,-3.45,-29.13,-29.61,0,*57
1491764630.29,53414,14.5,74186.5,-3.47,-29.13,-29.61,0,*52
1491764631.52,53415,14.5,74188.0,-3.47,-29.07,-29.57,0,*53
1491764632.75,53416,14.5,74188.5,-3.47,-28.97,-29.57,0,*58
1491764634.02,53417,14.5,74190.8,-3.47,-28.75,-29.29,0,*5C
1491764635.25,53418,14.5,74188.0,-3.47,-29.07,-29.61,0,*5B
1491764636.47,53419,14.5,74188.8,-3.47,-28.97,-29.61,0,*52
1491764637.74,53420,14.5,74186.8,-3.47,-29.13,-29.73,0,*56
1491764638.97,53421,14.5,74186.5,-3.47,-28.97,-29.61,0,*59
1491764640.18,53422,14.5,74188.5,-3.49,-28.97,-29.45,0,*52
1491764641.42,53423,14.5,74186.0,-3.45,-28.91,-29.57,0,*5A
1491764642.67,53424,14.5,74188.8,-3.47,-29.13,-29.57,0,*54
1491764643.9,53425,14.5,74188.3,-3.47,-28.97,-29.57,0,*58
1491764645.16,53426,14.5,74190.3,-3.49,-29.01,-29.51,0,*5D
1491764646.43,53427,14.5,74188.5,-3.47,-28.75,-29.29,0,*5F
1491764647.68,53428,14.5,74190.5,-3.47,-29.07,-29.73,0,*5B
1491764648.93,53429,14.5,74188.3,-3.47,-29.07,-29.73,0,*5A
1491764650.14,53430,14.5,74190.0,-3.49,-28.97,-29.45,0,*51
1491764651.42,53431,14.5,74184.3,-3.47,-29.29,-29.73,0,*5F
1491764652.65,53432,14.5,74190.0,-3.49,-29.13,-29.67,0,*5E
1491764653.88,53433,14.5,74188.0,-3.47,-28.97,-29.61,0,*5A
1491764655.13,53434,14.5,74188.0,-3.49,-28.79,-29.29,0,*5F
1491764656.38,53435,14.5,74186.3,-3.49,-28.79,-29.29,0,*5E
1491764657.64,53436,14.5,74184.8,-3.47,-28.91,-29.45,0,*5F
1491764658.9,53437,14.5,74188.0,-3.47,-28.91,-29.57,0,*5D
1491764660.13,53438,14.5,74188.0,-3.45,-29.01,-29.61,0,*5D
1491764661.36,53439,14.5,74190.3,-3.49,-29.13,-29.67,0,*55
1491764662.6,53440,14.5,74186.3,-3.49,-29.13,-29.67,0,*5B
1491764663.83,53441,14.5,74186.3,-3.49,-28.91,-29.45,0,*51
1491764665.04,53442,14.5,74188.3,-3.49,-28.97,-29.61,0,*52
1491764666.27,53443,14.5,74188.0,-3.47,-29.07,-29.57,0,*50
1491764667.5,53444,14.5,74190.8,-3.49,-29.13,-29.67,0,*5F
1491764668.74,53445,14.5,74188.5,-3.49,-29.13,-29.67,0,*5E
1491764669.99,53446,14.5,74186.0,-3.47,-28.85,-29.39,0,*56
1491764671.26,53447,14.5,74188.8,-3.49,-28.91,-29.35,0,*50
1491764672.52,53448,14.5,74188.0,-3.49,-28.75,-29.35,0,*55
1491764673.78,53449,14.5,74190.3,-3.49,-28.91,-29.51,0,*5C
1491764675.02,53450,14.5,74188.5,-3.49,-29.13,-29.67,0,*5A
1491764676.25,53451,14.5,74184.8,-3.49,-29.01,-29.67,0,*58
1491764677.49,53452,14.5,74188.3,-3.49,-29.01,-29.61,0,*5D
1491764678.74,53453,14.5,74190.3,-3.47,-28.85,-29.39,0,*52
1491764679.98,53454,14.5,74186.8,-3.49,-28.97,-29.35,0,*54
1491764681.23,53455,14.5,74188.3,-3.47,-28.85,-29.39,0,*54
1491764682.49,53456,14.5,74190.3,-3.49,-28.75,-29.35,0,*5A
1491764683.73,53457,14.5,74188.5,-3.49,-28.47,-29.13,0,*5E
1491764684.98,53458,14.5,74188.8,-3.49,-28.75,-29.29,0,*59
1491764686.22,53459,14.5,74190.5,-3.49,-28.97,-29.51,0,*5B
1491764687.43,53460,14.5,74184.5,-3.49,-28.97,-29.61,0,*52
1491764688.69,53461,14.5,74188.5,-3.49,-28.91,-29.35,0,*54
1491764689.93,53462,14.5,74190.0,-3.49,-28.97,-29.51,0,*53
1491764691.16,53463,14.5,74188.5,-3.49,-29.13,-29.79,0,*55
1491764692.39,53464,14.5,74188.0,-3.47,-28.85,-29.45,0,*5D
1491764693.64,53465,14.5,74188.5,-3.47,-28.75,-29.45,0,*53
1491764694.9,53466,14.5,74188.0,-3.49,-28.79,-29.35,0,*55
1491764696.14,53467,14.5,74190.0,-3.49,-28.79,-29.45,0,*53
1491764697.37,53468,14.5,74186.5,-3.49,-29.01,-29.61,0,*54
1491764698.6,53469,14.5,74190.0,-3.47,-28.97,-29.61,0,*55
1491764699.86,53470,14.5,74188.0,-3.49,-28.91,-29.35,0,*54
1491764701.1,53471,14.5,74188.0,-3.49,-28.79,-29.45,0,*54
1491764702.33,53472,14.5,74184.8,-3.49,-29.13,-29.79,0,*55
1491764703.59,53473,14.5,74188.8,-3.49,-29.01,-29.51,0,*5D
1491764704.82,53474,14.5,74190.0,-3.49,-29.01,-29.61,0,*59
1491764706.05,53475,14.5,74186.8,-3.49,-29.13,-29.79,0,*52
1491764707.26,53476,14.5,74190.0,-3.49,-28.97,-29.57,0,*50
1491764708.49,53477,14.5,74190.8,-3.49,-29.13,-29.67,0,*5F
1491764709.72,53478,14.5,74188.3,-3.49,-29.17,-29.79,0,*5B
1491764711.01,53479,14.5,74188.8,-3.51,-29.01,-29.51,0,*5E
1491764712.25,53480,14.5,74188.3,-3.53,-29.01,-29.57,0,*5C
1491764713.48,53481,14.5,74188.0,-3.53,-28.97,-29.39,0,*5B
1491764714.75,53482,14.5,74188.3,-3.51,-28.91,-29.45,0,*57
1491764715.98,53483,14.5,74184.3,-3.51,-28.97,-29.45,0,*50
1491764717.22,53484,14.5,74186.5,-3.49,-29.01,-29.67,0,*50
1491764718.51,53485,14.5,74188.5,-3.51,-28.91,-29.51,0,*55
1491764719.78,53486,14.5,74186.5,-3.51,-28.91,-29.45,0,*53
1491764721.04,53487,14.5,74188.8,-3.51,-28.91,-29.45,0,*52
1491764722.28,53488,14.5,74190.3,-3.53,-29.17,-29.83,0,*5A
1491764723.54,53489,14.5,74190.3,-3.51,-29.13,-29.79,0,*58
1491764724.77,53490,14.5,74188.8,-3.53,-29.23,-29.73,0,*5B
1491764725.98,53491,14.5,74184.5,-3.53,-28.97,-29.57,0,*52
1491764727.25,53492,14.5,74188.0,-3.51,-28.91,-29.45,0,*56
1491764728.49,53493,14.5,74188.3,-3.53,-29.01,-29.67,0,*5D
1491764729.73,53494,14.5,74190.3,-3.53,-29.01,-29.67,0,*5A
1491764730.96,53495,14.5,74186.0,-3.53,-29.07,-29.73,0,*58
1491764732.23,53496,14.5,74188.8,-3.53,-28.91,-29.51,0,*55
1491764733.52,53497,14.5,74188.0,-3.51,-28.91,-29.51,0,*56
1491764734.74,53498,14.5,74188.5,-3.53,-29.07,-29.57,0,*53
1491764735.97,53499,14.5,74188.5,-3.53,-28.97,-29.39,0,*52
1491764737.21,53500,14.5,74188.8,-3.53,-29.17,-29.83,0,*5B
1491764738.47,53501,14.5,74190.5,-3.55,-29.01,-29.57,0,*52
1491764739.7,53502,14.5,74188.0,-3.53,-28.85,-29.39,0,*52
1491764740.95,53503,14.5,74190.8,-3.53,-28.85,-29.51,0,*5D
1491764742.2,53504,14.5,74186.5,-3.53,-29.01,-29.39,0,*59
1491764743.42,53505,14.5,74184.8,-3.53,-29.07,-29.57,0,*56
1491764744.66,53506,14.5,74186.8,-3.53,-29.01,-29.67,0,*50
1491764745.92,53507,14.5,74188.0,-3.53,-29.17,-29.73,0,*53
1491764747.16,53508,14.5,74188.3,-3.53,-29.01,-29.57,0,*5D
1491764748.4,53509,14.5,74188.0,-3.53,-29.01,-29.67,0,*5F
1491764749.63,53510,14.5,74192.3,-3.53,-28.97,-29.39,0,*52
1491764750.84,53511,14.5,74188.3,-3.53,-28.97,-29.57,0,*5B
1491764752.08,53512,14.5,74188.5,-3.53,-28.85,-29.39,0,*53
1491764753.31,53513,14.5,74190.0,-3.53,-28.85,-29.39,0,*52
1491764754.55,53514,14.5,74190.3,-3.53,-28.85,-29.51,0,*5B
1491764755.77,53515,14.5,74188.5,-3.53,-28.97,-29.57,0,*5F
1491764757.03,53516,14.5,74192.3,-3.55,-28.97,-29.51,0,*5C
1491764758.28,53517,14.5,74190.8,-3.53,-28.79,-29.39,0,*55
1491764759.52,53518,14.5,74186.5,-3.53,-28.85,-29.39,0,*59
1491764760.75,53519,14.5,74190.5,-3.53,-28.63,-29.23,0,*5B
1491764761.98,53520,14.5,74190.8,-3.53,-28.79,-29.23,0,*5A
1491764763.26,53521,14.5,74190.3,-3.51,-28.75,-29.29,0,*5F
1491764764.46,53522,14.5,74186.8,-3.53,-28.69,-29.23,0,*59
1491764765.69,53523,14.5,74190.0,-3.53,-28.69,-29.17,0,*5F
1491764766.97,53524,14.5,74190.0,-3.51,-28.63,-29.29,0,*5D
1491764768.2,53525,14.5,74188.5,-3.53,-28.63,-29.23,0,*54
1491764769.46,53526,14.5,74188.3,-3.53,-28.59,-29.17,0,*59
1491764770.74,53527,14.5,74188.8,-3.51,-28.59,-29.13,0,*5E
1491764771.97,53528,14.5,74190.3,-3.53,-28.69,-29.17,0,*54
1491764773.24,53529,14.5,74186.5,-3.51,-28.63,-29.29,0,*50
1491764774.45,53530,14.5,74188.5,-3.49,-28.69,-29.23,0,*51
1491764775.7,53531,14.5,74184.3,-3.49,-28.75,-29.29,0,*57
1491764776.95,53532,14.5,74184.0,-3.49,-28.75,-29.13,0,*5D
1491764778.17,53533,14.5,74188.0,-3.49,-28.43,-28.97,0,*54
1491764779.42,53534,14.5,74188.3,-3.49,-28.47,-29.01,0,*59
1491764780.71,53535,14.5,74188.3,-3.47,-28.25,-28.91,0,*5A
1491764781.98,53536,14.5,74184.0,-3.47,-28.21,-28.75,0,*57
1491764783.21,53537,14.5,74188.5,-3.47,-28.37,-28.85,0,*5E
1491764784.46,53538,14.5,74188.5,-3.47,-28.59,-29.23,0,*54
1491764785.71,53539,14.5,74186.3,-3.43,-28.63,-29.07,0,*5E
1491764786.92,53540,14.5,74182.5,-3.45,-28.97,-29.45,0,*5B
1491764788.12,53541,14.5,74186.0,-3.45,-28.97,-29.45,0,*5A
1491764789.33,53542,14.5,74186.0,-3.45,-28.97,-29.57,0,*5A
1491764790.54,53543,14.5,74190.0,-3.45,-28.85,-29.57,0,*58
1491764791.79,53544,14.5,74184.3,-3.43,-28.85,-29.39,0,*51
1491764792.99,53545,14.5,74184.5,-3.45,-28.85,-29.23,0,*5D
1491764794.22,53546,14.5,74184.5,-3.45,-28.69,-29.13,0,*5F
1491764795.41,53547,14.5,74190.8,-3.45,-28.69,-29.23,0,*5D
1491764796.63,53548,14.5,74186.0,-3.45,-28.75,-29.23,0,*5F
1491764797.87,53549,14.5,74180.8,-3.45,-28.91,-29.45,0,*54
1491764799.1,53550,14.5,74182.5,-3.45,-28.85,-29.29,0,*53
1491764800.34,53551,14.5,74182.8,-3.45,-28.75,-29.29,0,*5D
1491764801.59,53552,14.5,74188.5,-3.43,-28.69,-29.39,0,*54
1491764802.81,53553,14.5,74188.5,-3.45,-28.75,-29.23,0,*55
1491764804.04,53554,14.5,74186.3,-3.45,-28.75,-29.23,0,*52
1491764805.24,53555,14.5,74184.0,-3.45,-28.53,-29.07,0,*51
1491764806.51,53556,14.5,74182.0,-3.43,-28.47,-28.91,0,*5F
1491764807.72,53557,14.5,74184.3,-3.45,-28.53,-29.07,0,*53
1491764808.99,53558,14.5,74186.3,-3.43,-28.47,-28.91,0,*51
1491764810.25,53559,14.5,74186.8,-3.43,-28.37,-29.01,0,*5F
1491764811.47,53560,14.5,74184.0,-3.45,-28.59,-29.07,0,*5D
1491764812.73,53561,14.5,74182.5,-3.43,-28.53,-29.01,0,*56
1491764813.98,53562,14.5,74184.8,-3.39,-28.47,-29.01,0,*5D
1491764815.21,53563,14.5,74184.3,-3.39,-28.43,-28.85,0,*55
1491764816.47,53564,14.5,74186.0,-3.39,-28.59,-29.01,0,*54
1491764817.72,53565,14.5,74184.8,-3.39,-28.63,-29.13,0,*5F
1491764818.96,53566,14.5,74184.8,-3.39,-28.75,-29.29,0,*52
1491764820.22,53567,14.5,74182.8,-3.39,-28.75,-29.35,0,*5E
1491764821.47,53568,14.5,74184.3,-3.39,-28.63,-29.17,0,*56
1491764822.72,53569,14.5,74180.8,-3.39,-28.63,-29.29,0,*5A
1491764823.98,53570,14.5,74182.0,-3.39,-28.75,-29.35,0,*58
1491764825.26,53571,14.5,74184.8,-3.37,-28.63,-29.29,0,*5D
1491764826.51,53572,14.5,74180.5,-3.39,-28.79,-29.29,0,*5B
1491764827.79,53573,14.5,74184.8,-3.37,-28.75,-29.17,0,*55
1491764829.03,53574,14.5,74184.8,-3.37,-28.97,-29.45,0,*59
1491764830.24,53575,14.5,74180.0,-3.39,-28.85,-29.45,0,*55
1491764831.5,53576,14.5,74182.5,-3.37,-29.13,-29.61,0,*50
1491764832.73,53577,14.5,74182.5,-3.39,-29.13,-29.67,0,*59
1491764834.02,53578,14.5,74180.5,-3.37,-29.13,-29.51,0,*5D
1491764835.25,53579,14.5,74186.5,-3.39,-29.01,-29.61,0,*52
1491764836.48,53580,14.5,74184.5,-3.39,-29.01,-29.61,0,*54
1491764837.77,53581,14.5,74184.5,-3.37,-29.13,-29.51,0,*5B
1491764839.02,53582,14.5,74184.0,-3.39,-28.75,-29.17,0,*55
1491764840.27,53583,14.5,74180.5,-3.39,-28.79,-29.29,0,*55
1491764841.52,53584,14.5,74180.5,-3.39,-28.79,-29.17,0,*5F
1491764842.77,53585,14.5,74182.3,-3.39,-28.75,-29.29,0,*5F
1491764844.03,53586,14.5,74182.5,-3.39,-28.79,-29.35,0,*5D
1491764845.32,53587,14.5,74180.3,-3.37,-28.75,-29.35,0,*5E
1491764846.52,53588,14.5,74176.5,-3.39,-28.97,-29.45,0,*54
1491764847.73,53589,14.5,74184.3,-3.39,-28.97,-29.45,0,*55
1491764848.96,53590,14.5,74180.3,-3.39,-28.97,-29.51,0,*58
1491764850.22,53591,14.5,74186.8,-3.39,-29.01,-29.51,0,*57
1491764851.46,53592,14.5,74178.8,-3.39,-29.01,-29.67,0,*51
1491764852.73,53593,14.5,74176.8,-3.37,-29.01,-29.67,0,*5E
1491764853.96,53594,14.5,74180.0,-3.39,-28.97,-29.51,0,*5C
1491764855.19,53595,14.5,74182.0,-3.39,-28.79,-29.45,0,*58
1491764856.43,53596,14.5,74180.8,-3.39,-29.13,-29.67,0,*56
1491764857.63,53597,14.5,74182.3,-3.39,-28.97,-29.61,0,*5C
1491764858.86,53598,14.5,74182.5,-3.39,-29.13,-29.61,0,*5E
1491764860.15,53599,14.5,74180.0,-3.37,-29.01,-29.51,0,*51
1491764861.36,53600,14.5,74180.5,-3.39,-28.85,-29.45,0,*54
1491764862.59,53601,14.5,74184.0,-3.39,-29.01,-29.61,0,*5E
1491764863.85,53602,14.5,74182.8,-3.39,-29.01,-29.51,0,*5E
1491764865.1,53603,14.5,74184.0,-3.39,-28.79,-29.29,0,*5E
1491764866.38,53604,14.5,74182.3,-3.37,-28.79,-29.29,0,*57
1491764867.66,53605,14.5,74180.3,-3.37,-28.75,-29.17,0,*57
1491764868.91,53606,14.5,74180.0,-3.39,-28.79,-29.29,0,*5B
1491764870.15,53607,14.5,74180.5,-3.39,-28.97,-29.35,0,*57
1491764871.38,53608,14.5,74182.0,-3.39,-28.97,-29.51,0,*5A
1491764872.61,53609,14.5,74182.8,-3.39,-28.97,-29.51,0,*5B
1491764873.85,53610,14.5,74184.3,-3.39,-28.97,-29.51,0,*53
1491764875.14,53611,14.5,74180.8,-3.37,-28.79,-29.35,0,*5E
1491764876.4,53612,14.5,74184.3,-3.39,-28.79,-29.35,0,*53
1491764877.61,53613,14.5,74180.5,-3.39,-28.85,-29.45,0,*56
1491764878.86,53614,14.5,74180.5,-3.39,-28.59,-29.13,0,*53
1491764880.15,53615,14.5,74182.5,-3.37,-28.79,-29.35,0,*5A
1491764881.36,53616,14.5,74182.8,-3.39,-28.85,-29.45,0,*53
1491764882.59,53617,14.5,74180.0,-3.39,-29.13,-29.67,0,*5C
1491764883.82,53618,14.5,74180.5,-3.39,-29.01,-29.61,0,*56
1491764885.05,53619,14.5,74180.0,-3.39,-29.13,-29.79,0,*5D
1491764886.3,53620,14.5,74180.0,-3.43,-29.23,-29.73,0,*53
1491764887.54,53621,14.5,74180.5,-3.39,-29.17,-29.67,0,*5D
1491764888.77,53622,14.5,74182.0,-3.39,-29.17,-29.67,0,*5E
1491764890.0,53623,14.5,74178.5,-3.39,-29.13,-29.61,0,*5D
1491764891.26,53624,14.5,74184.3,-3.43,-29.07,-29.51,0,*51
1491764892.5,53625,14.5,74180.3,-3.45,-28.91,-29.57,0,*5E
1491764893.73,53626,14.5,74182.3,-3.43,-29.07,-29.67,0,*56
1491764894.96,53627,14.5,74180.5,-3.43,-29.23,-29.83,0,*5B
1491764896.2,53628,14.5,74182.3,-3.43,-29.23,-29.83,0,*54
1491764897.4,53629,14.5,74180.5,-3.45,-28.97,-29.57,0,*54
1491764898.63,53630,14.5,74180.3,-3.45,-28.85,-29.39,0,*57
1491764899.92,53631,14.5,74182.0,-3.43,-28.79,-29.35,0,*5F
1491764901.18,53632,14.5,74184.0,-3.43,-28.85,-29.51,0,*5D
1491764902.42,53633,14.5,74184.5,-3.45,-28.91,-29.45,0,*5A
1491764903.62,53634,14.5,74182.3,-3.45,-29.07,-29.67,0,*53